User: anonymous   Login
Location: Unspecified
(0.0000°N, 0.0000°E)
Time: 11:56:29
(UTC+00:00)
Language:

CBERS-1 - Orbit

View from above orbital plane
View from above orbital plane
View from above satellite
View from above satellite

Ground track
Ground track

The orbit data is extracted from the following two-line orbital elements,

1 25940U 99057A   21015.56041425  .00000005  00000-0  17136-4 0  9993
2 25940  98.6363 326.1029 0006159  81.3770 278.8113 14.35525218113525
Epoch (UTC): 15 January 2021 13:26:59
Eccentricity: 0.0006159
inclination: 98.6363°
perigee height: 769 km
apogee height: 778 km
right ascension of ascending node: 326.1029°
argument of perigee: 81.3770°
revolutions per day: 14.35525218
mean anomaly at epoch: 278.8113°
orbit number at epoch: 11352

The dashed part of the orbit path shows where the satellite is in the earth's shadow,  

DLR